Location: Rounton
(54.4000°N, 1.3500°W)
Time: 19:01:11
(UTC+00:00)

SR - Visible Passes

Search period start: 30 November 2021 00:00
Search period end: 10 December 2021 00:00
Orbit: 583 x 871 km, 66.7° (Epoch: 30 November)

Date Brightness Start Highest point End Pass type
(mag) Time Alt. Az. Time Alt. Az. Time Alt. Az.
30 Nov ? 04:48:06 15° NNE 04:48:06 15° NNE 04:49:53 10° NE visible
30 Nov ? 06:27:30 11° NNW 06:30:38 23° NNE 06:34:05 10° ENE visible
01 Dec ? 03:59:34 10° NNE 03:59:34 10° NNE 03:59:41 10° NNE visible
01 Dec ? 05:38:57 16° N 05:40:18 18° NNE 05:43:20 10° ENE visible
01 Dec ? 07:19:13 10° NW 07:23:19 44° NE 07:27:31 10° ESE visible
02 Dec ? 04:50:25 16° NNE 04:50:25 16° NNE 04:52:40 10° NE visible
02 Dec ? 06:29:49 12° NNW 06:33:13 29° NNE 06:37:02 10° E visible
03 Dec ? 04:01:54 11° NNE 04:01:54 11° NNE 04:02:13 10° NE visible
03 Dec ? 05:41:17 18° N 05:42:58 22° NNE 05:46:22 10° ENE visible
03 Dec ? 07:21:25 10° NW 07:25:41 68° NE 07:30:05 10° SE visible
04 Dec ? 04:52:46 18° NNE 04:52:46 18° NNE 04:55:38 10° ENE visible
04 Dec ? 06:32:10 13° NNW 06:35:41 42° NE 06:39:52 10° ESE visible
05 Dec ? 04:04:16 12° NE 04:04:16 12° NE 04:04:58 10° NE visible
05 Dec ? 05:43:39 21° NNW 05:45:33 28° NNE 05:49:21 10° E visible
05 Dec ? 07:23:39 10° NW 07:27:56 74° SW 07:32:23 10° SSE visible
06 Dec ? 04:55:11 21° NNE 04:55:18 21° NNE 04:58:40 10° ENE visible
06 Dec ? 06:34:34 15° NW 06:38:03 65° NE 06:42:28 10° SE visible
07 Dec ? 04:06:42 14° NE 04:06:42 14° NE 04:07:55 10° ENE visible
07 Dec ? 05:46:06 25° NNW 05:48:02 40° NE 05:52:11 10° ESE visible
07 Dec ? 07:26:00 10° NW 07:30:05 43° WSW 07:34:20 10° SSE visible
08 Dec ? 04:57:40 27° NNE 04:57:53 28° NNE 05:01:39 10° E visible
08 Dec ? 06:37:04 17° NW 06:40:19 79° SW 06:44:47 10° SE visible
09 Dec ? 04:09:15 17° NE 04:09:15 17° NE 04:10:57 10° ENE visible
09 Dec ? 05:48:39 33° NNW 05:50:25 61° NE 05:54:49 10° SE visible
09 Dec ? 07:28:33 10° WNW 07:32:08 26° WSW 07:35:50 10° S visible
